sat.trackr.live / text

‹ back to catalog

UNKNOWN

NORAD 87204

UNKNOWN UNKNOWN UNKNOWN

§ Identity

Operator
Country
Launch date
Launch site
Launch vehicle
Mass (kg)
RCS (m²)

External: N2YO · Heavens-Above

§ Orbital elements

Epoch: 2026-09-17T01:22:08.211072Z

Period
100.67 min
Inclination
98.5117°
Eccentricity
0.0043483
Mean motion
14.30442252 rev/d
Perigee alt
759.1 km
Apogee alt
821.4 km
Semi-major
7,168.4 km
B*
5.3709e-4
RAAN
120.1880°
Arg perigee
224.9144°
Mean anomaly
134.8518°
Rev number
66,521

§ Raw data

UNKNOWN1 87204U          26260.05703948  .00001369  00000+0  53709-3 0  99982 87204  98.5117 120.1880 0043483 224.9144 134.8518 14.30442252665219

JSON: /api/v1/satellites/87204 · /tle

For live sub-satellite position, see the globe view (requires WebGL).

§ Visibility from observer

Set your observer location to see the next 7 days of passes ≥ 10°. The values pass through the URL so the page stays shareable.

No JS? Fill the form by hand. The geolocation button needs JavaScript.